Flag for Australia Weather past 2 weeks in Canberra, Australian Capital Territory, Australia

Now
46 °F

Fog.


Feels Like: 44 °F
Forecast: 37 / 61 °F
Wind: 5 mph from North

Location: Canberra Airport

Current Time: Apr 27, 2015 at 9:34:59 AM

Latest Report: Apr 27, 2015 at 9:00 AM


Visibility: N/A

Pressure: 30.12 "Hg

Humidity: 82%

Dew point: 41 °F

Location of CanberraLocation

Historic Weather in Canberra — Graph

°F

Canberra temperature yesterday

Maximum temperature yesterday: 63 °F (at 2:30 PM)
Minimum temperature yesterday: 41 °F (at 2:30 AM)
Average temperature yesterday: 49 °F

Past Weeks' High & Low Weather Summary

 TemperatureHumidityPressure
High79 °F (Apr 16, 2:00 PM)100% (Apr 13, 3:00 AM)30.39 "Hg (Apr 13, 3:00 AM)
Low32 °F (Apr 27, 6:00 AM)28% (Apr 16, 3:00 PM)29.71 "Hg (Apr 24, 1:00 PM)
Average55 °F79%30.08 "Hg
* Reported Apr 12 8:00 AM — Apr 27 8:00 AM, Canberra, Weather by CustomWeather, © 2015

Note: Actual official high and low records may vary slightly from our data, if they occured in-between our weather recording intervals... More about our weather records

Advertising

Canberra weather history for previous 24 hours

 ConditionsComfort  
Time TempWeatherWind HumidityBarometerVisibility
8:00 AM
Mon, Apr 27
39 °FSunny.6 mph93%30.12 "Hg10 mi
7:30 AM37 °FSunny.No wind93%30.09 "Hg10 mi
7:00 AM34 °FSunny.No wind100%30.09 "Hg10 mi
6:30 AM34 °FFog.2 mph93%30.07 "HgN/A
6:00 AM32 °FSunny.3 mph93%30.07 "Hg10 mi
5:30 AM34 °FClear.3 mph93%30.07 "Hg10 mi
5:00 AM36 °FClear.No wind93%30.07 "Hg10 mi
4:30 AM37 °FClear.3 mph87%30.07 "Hg10 mi
4:00 AM37 °FClear.5 mph87%30.04 "HgN/A
3:00 AM37 °FClear.3 mph87%30.04 "HgN/A
2:30 AM37 °FClear.No wind87%30.04 "HgN/A
2:00 AM39 °FClear.3 mph87%30.04 "HgN/A
1:30 AM43 °FClear.3 mph81%30.04 "HgN/A
1:00 AM45 °FClear.No wind76%30.04 "HgN/A
12:30 AM45 °FClear.3 mph76%30.04 "HgN/A
12:00 AM46 °FPartly cloudy.3 mph82%30.04 "HgN/A
11:30 PM
Sun, Apr 26
45 °FPassing clouds.No wind87%30.04 "HgN/A
11:00 PM43 °FPassing clouds.5 mph93%30.04 "HgN/A
10:30 PM43 °FOvercast.No wind93%30.04 "HgN/A
10:00 PM45 °FPassing clouds.No wind87%30.04 "HgN/A
9:30 PM43 °FQuite cool.No wind93%30.04 "HgN/A
9:00 PM43 °FClear.5 mph93%30.01 "HgN/A
8:30 PM45 °FClear.5 mph93%30.01 "HgN/A
8:00 PM48 °FClear.6 mph87%30.01 "HgN/A
7:30 PM46 °FClear.6 mph87%30.01 "HgN/A
7:00 PM48 °FClear.5 mph87%29.98 "HgN/A
6:30 PM48 °FClear.No wind87%29.98 "HgN/A
6:00 PM54 °FPassing clouds.2 mph82%29.95 "HgN/A
5:30 PM55 °FPassing clouds.5 mph67%29.95 "HgN/A
5:00 PM57 °FPartly cloudy.6 mph72%29.95 "HgN/A
4:30 PM55 °FScattered showers. Partly cloudy.8 mph82%29.92 "HgN/A
4:00 PM57 °FSprinkles. Broken clouds.15 mph77%29.92 "HgN/A
3:30 PM61 °FScattered showers. Partly sunny.6 mph55%29.89 "HgN/A
3:00 PM63 °FPartly sunny.9 mph52%29.89 "HgN/A
2:30 PM63 °FPartly sunny.10 mph52%29.89 "HgN/A
2:00 PM61 °FPartly sunny.15 mph55%29.89 "HgN/A
1:30 PM61 °FPartly sunny.13 mph55%29.89 "HgN/A
1:00 PM61 °FPartly sunny.12 mph55%29.86 "HgN/A
12:00 PM59 °FPartly sunny.1 mph68%29.86 "HgN/A
11:30 AM57 °FScattered clouds.6 mph67%29.86 "HgN/A
11:00 AM55 °FScattered clouds.6 mph72%29.89 "HgN/A
10:30 AM54 °FScattered clouds.5 mph88%29.89 "HgN/A
10:00 AM50 °FScattered clouds.7 mph94%29.89 "HgN/A
9:30 AM50 °FScattered clouds.6 mph94%29.86 "HgN/A
9:00 AM48 °FScattered clouds.1 mph94%29.86 "HgN/A
Weather by CustomWeather, © 2015

See weather overviewHow to use our weather pages